Estación de Illapel
Ultimos registro cada 15 minutos 64
| N° | Estación | Fecha / Hora | Temperatura | Humedad | Lluvia | Velocidad | Dirección | Radiación | Presion |
| 64 | Illapel | 04-09-2026 15:45 | 20,2 | 44 | 0 | 1,8 | 286 | 540 | 993,8 |
| 63 | Illapel | 04-09-2026 15:30 | 20,4 | 42 | 0 | 2,2 | 311 | 592 | 994 |
| 62 | Illapel | 04-09-2026 15:15 | 20,7 | 41 | 0 | 2,7 | 320 | 631 | 993,9 |
| 61 | Illapel | 04-09-2026 15:00 | 20,9 | 41 | 0 | 4,9 | 318 | 673 | 993,8 |
| 60 | Illapel | 04-09-2026 14:45 | 21,1 | 41 | 0 | 2,7 | 321 | 710 | 993,8 |
| 59 | Illapel | 04-09-2026 14:30 | 21,1 | 41 | 0 | 3,6 | 328 | 740 | 993,9 |
| 58 | Illapel | 04-09-2026 14:15 | 21,1 | 42 | 0 | 3,1 | 318 | 766 | 994 |
| 57 | Illapel | 04-09-2026 14:00 | 21,1 | 41 | 0 | 3,1 | 310 | 789 | 994,2 |
| 56 | Illapel | 04-09-2026 13:45 | 21,3 | 41 | 0 | 2,7 | 306 | 816 | 994,3 |
| 55 | Illapel | 04-09-2026 13:30 | 21,7 | 39 | 0 | 1,3 | 13 | 830 | 994,5 |
| 54 | Illapel | 04-09-2026 13:15 | 21,6 | 37 | 0 | 2,2 | 321 | 838 | 994,6 |
| 53 | Illapel | 04-09-2026 13:00 | 21,4 | 29 | 0 | 3,6 | 329 | 846 | 995 |
| 52 | Illapel | 04-09-2026 12:45 | 20,9 | 22 | 0 | 2,7 | 346 | 847 | 995,2 |
| 51 | Illapel | 04-09-2026 12:30 | 20,8 | 16 | 0 | 1,8 | 348 | 847 | 995,4 |
| 50 | Illapel | 04-09-2026 12:15 | 20,4 | 12 | 0 | 1,8 | 316 | 837 | 995,5 |
| 49 | Illapel | 04-09-2026 12:00 | 20 | 14 | 0 | 1,3 | 358 | 42 | 995,7 |
| 48 | Illapel | 04-09-2026 11:45 | 19,4 | 14 | 0 | 0,9 | 264 | 40 | 996 |
| 47 | Illapel | 04-09-2026 11:30 | 18,8 | 15 | 0 | 0,4 | 326 | 39 | 996,1 |
| 46 | Illapel | 04-09-2026 11:15 | 18,3 | 14 | 0 | 0,4 | 328 | 39 | 996,2 |
| 45 | Illapel | 04-09-2026 11:00 | 17,5 | 13 | 0 | 0,4 | 358 | 39 | 996,5 |
| 44 | Illapel | 04-09-2026 10:45 | 16,8 | 15 | 0 | 1,3 | 354 | 39 | 996,5 |
| 43 | Illapel | 04-09-2026 10:30 | 16 | 17 | 0 | 0,4 | 360 | 39 | 996,7 |
| 42 | Illapel | 04-09-2026 10:15 | 15 | 20 | 0 | 0,9 | 2 | 114 | 996,8 |
| 41 | Illapel | 04-09-2026 10:00 | 14,1 | 26 | 0 | 0,9 | 9 | 594 | 997 |
| 40 | Illapel | 04-09-2026 09:45 | 12,7 | 31 | 0 | 0 | 6 | 497 | 997,2 |
| 39 | Illapel | 04-09-2026 09:30 | 11,9 | 31 | 0 | 0 | 10 | 494 | 997,2 |
| 38 | Illapel | 04-09-2026 09:15 | 11,7 | 33 | 0 | 0,9 | 53 | 385 | 997,2 |
| 37 | Illapel | 04-09-2026 09:00 | 11,3 | 33 | 0 | 0,4 | 79 | 392 | 998,4 |
| 36 | Illapel | 04-09-2026 08:45 | 10,6 | 35 | 0 | 0 | 87 | 323 | 998,4 |
| 35 | Illapel | 04-09-2026 08:30 | 9,8 | 34 | 0 | 0,9 | 128 | 200 | 999 |
| 34 | Illapel | 04-09-2026 08:15 | 9 | 34 | 0 | 0 | 152 | 195 | 999,5 |
| 33 | Illapel | 04-09-2026 08:00 | 8,6 | 33 | 0 | 0 | 152 | 81 | 999,4 |
| 32 | Illapel | 04-09-2026 07:45 | 8,4 | 33 | 0 | 0 | 153 | 53 | 999,2 |
| 31 | Illapel | 04-09-2026 07:30 | 8,3 | 33 | 0 | 0 | 154 | 21 | 999,2 |
| 30 | Illapel | 04-09-2026 07:15 | 8,1 | 32 | 0 | 0 | 155 | 5 | 998,9 |
| 29 | Illapel | 04-09-2026 07:00 | 7,9 | 32 | 0 | 0 | 156 | 0 | 998,9 |
| 28 | Illapel | 04-09-2026 06:45 | 7,9 | 31 | 0 | 0 | 155 | 0 | 998,9 |
| 27 | Illapel | 04-09-2026 06:30 | 8 | 31 | 0 | 0 | 155 | 0 | 998,9 |
| 26 | Illapel | 04-09-2026 06:15 | 8,2 | 31 | 0 | 0 | 155 | 0 | 998,7 |
| 25 | Illapel | 04-09-2026 06:00 | 8,1 | 31 | 0 | 0 | 183 | 0 | 998,5 |
| 24 | Illapel | 04-09-2026 05:45 | 7,7 | 31 | 0 | 0,4 | 232 | 0 | 998,6 |
| 23 | Illapel | 04-09-2026 05:30 | 7,7 | 30 | 0 | 0 | 240 | 0 | 998,9 |
| 22 | Illapel | 04-09-2026 05:15 | 7,6 | 30 | 0 | 0 | 240 | 0 | 999,1 |
| 21 | Illapel | 04-09-2026 05:00 | 7,8 | 29 | 0 | 0 | 240 | 0 | 999,2 |
| 20 | Illapel | 04-09-2026 04:45 | 8 | 30 | 0 | 0 | 240 | 0 | 999,6 |
| 19 | Illapel | 04-09-2026 04:30 | 7,9 | 30 | 0 | 0 | 240 | 0 | 999,6 |
| 18 | Illapel | 04-09-2026 04:15 | 8,1 | 30 | 0 | 0 | 240 | 0 | 999,4 |
| 17 | Illapel | 04-09-2026 04:00 | 8,2 | 30 | 0 | 0 | 240 | 0 | 999,6 |
| 16 | Illapel | 04-09-2026 03:45 | 8,6 | 30 | 0 | 0 | 240 | 0 | 999,7 |
| 15 | Illapel | 04-09-2026 03:30 | 8,6 | 30 | 0 | 0 | 240 | 0 | 999,7 |
| 14 | Illapel | 04-09-2026 03:15 | 8,8 | 29 | 0 | 0 | 240 | 0 | 999,4 |
| 13 | Illapel | 04-09-2026 03:00 | 9,3 | 30 | 0 | 0,4 | 239 | 0 | 999,2 |
| 12 | Illapel | 04-09-2026 02:45 | 8,9 | 33 | 0 | 0 | 240 | 0 | 999,2 |
| 11 | Illapel | 04-09-2026 02:30 | 9,1 | 32 | 0 | 0 | 241 | 0 | 999,1 |
| 10 | Illapel | 04-09-2026 02:15 | 9,4 | 33 | 0 | 0 | 241 | 0 | 999,2 |
| 9 | Illapel | 04-09-2026 02:00 | 9,3 | 36 | 0 | 0 | 241 | 0 | 998,3 |
| 8 | Illapel | 04-09-2026 01:45 | 9,6 | 36 | 0 | 0 | 241 | 0 | 997,9 |
| 7 | Illapel | 04-09-2026 01:30 | 9,8 | 36 | 0 | 0 | 241 | 0 | 882,4 |
| 6 | Illapel | 04-09-2026 01:15 | 9,7 | 43 | 0 | 0 | 241 | 0 | 882,4 |
| 5 | Illapel | 04-09-2026 01:00 | 9,9 | 44 | 0 | 0 | 241 | 0 | 882,4 |
| 4 | Illapel | 04-09-2026 00:45 | 10,2 | 44 | 0 | 0 | 241 | 0 | 882,4 |
| 3 | Illapel | 04-09-2026 00:30 | 10,4 | 47 | 0 | 0,4 | 241 | 0 | 882,4 |
| 2 | Illapel | 04-09-2026 00:15 | 10,6 | 47 | 0 | 0 | 241 | 0 | 882,4 |
| 1 | Illapel | 04-09-2026 00:00 | 10,7 | 50 | 0 | 0,4 | 239 | 0 | 882,4 |